Live-Position
3D-Globus wird geladen...
Über Starlink 6364
Group: 3 satellites
Beschreibung wird geladen...
Nächste Überflüge
Passes for default location (London). Set your location on the main map for personalized predictions.
Höhenverlauf
Loading altitude history...
No altitude history available
Zweizeiliger Elementsatz
1 57378U 23099BC 26105.13519141 .00000732 00000-0 36963-4 0 9995
2 57378 43.0037 6.3940 0001054 261.4914 98.5818 15.26743692152853
Epoch: 15. Apr. 2026 •
Age: 28 hours
Aktueller Status
Höhe 485.1 km
Geschwindigkeit 7.63 km/s
Subsatellitenpunkt 17.53°N,
60.64°E
Startdatum 16. Juli 2023
Alter 2.7 years
Typ internet
Startgruppe
Falcon 9 •
Group 5-15 •
51 satellites
Starlink 6290
57328
Starlink 6138 57329
Starlink 6212 57330
Starlink 6234 57331
Starlink 5831 57332
Starlink 5585 57333
Starlink 5589 57334
Starlink 6316 57335
Starlink 6320 57336
Starlink 6322 57337
Starlink 6374 57338
Starlink 6332 57339
Starlink 6321 57340
Starlink 6377 57341
Starlink 6375 57342
Starlink 6379 57343
Starlink 6380 57344
Starlink 6373 57345
Starlink 6359 57346
Starlink 6378 57347
...and 30 more
Technische Details
Klassifizierung Payload
Masse 305.00 kg
Trockenmasse 290.00 kg
Gesamtmasse 305.00 kg
Länge 0.20 m
Durchmesser 2.80 m
Spannweite 9.00 m
Form Box + pan
Hersteller SPXS
Bus-Typ Starlink
Phasenstatus In Orbit
Besitzer/Staat SPXS/US
Most Searched
Loading...